[[{"header":{"parameterUnit":"m.s-1","parameterCategory":1,"la1":30.2991,"la2":30.254,"lo1":-89.0895,"lo2":-89.0444,"dy":0.0017,"dx":0.0017,"nx":28,"ny":28,"refTime":"2024-05-17T03:00:00:Z","depth":0,"parameterNumber":2,"parameterNumberName":"U-component_of_WINDS"},"data":[0,0,0,0,0,0,0,0,0,0,0,0,0,0,0,0,0,0,0,0,0,0,0,0,0,0,0,0,0,0,0,0,0,0,0,0,0,0,0,0,0,0,0,0,0,0,0,0,0,0,0,0,0,0,0,0,0,0,-5.2886,-5.2885,0,-5.2798,-5.2797,-5.2796,-5.267,-5.2668,-5.2666,-5.2664,-5.2575,-5.2574,-5.2574,0,0,0,0,0,0,0,0,0,0,0,0,0,-5.2949,-5.2949,-5.2886,-5.2885,-5.2884,-5.2798,-5.2797,-5.2795,-5.267,-5.2668,-5.2665,-5.2663,-5.2575,-5.2574,-5.2574,0,0,0,0,0,0,0,0,0,0,0,0,0,-5.2898,-5.2949,-5.2887,-5.2811,-5.2804,-5.2798,-5.2797,-5.2795,-5.2671,-5.2668,-5.2664,-5.2661,-5.2575,-5.2574,-5.2574,-5.2636,0,0,-5.2572,-5.2572,0,0,0,0,0,0,0,0,-5.2901,-5.2895,-5.2824,-5.2817,-5.2808,-5.2741,-5.2786,-5.2742,-5.2672,-5.2721,-5.2663,-5.266,-5.2633,-5.2627,-5.2618,-5.2631,-5.2628,-5.2572,-5.2572,-5.2572,-5.2572,0,0,0,0,0,0,0,-5.2904,-5.2898,-5.2851,-5.2823,-5.2813,-5.2782,-5.2772,-5.2777,-5.2697,-5.2717,-5.2707,-5.2699,-5.2628,-5.2619,-5.2615,-5.2626,-5.2572,-5.2572,-5.2572,-5.2571,-5.2683,-5.2686,0,0,0,0,0,0,-5.2919,-5.2902,-5.2854,-5.2849,-5.2847,-5.2784,-5.2772,-5.2766,-5.2696,-5.2682,-5.2701,-5.2693,-5.2621,-5.2616,-5.2611,-5.2676,-5.2572,-5.2571,-5.2571,-5.268,-5.2684,-5.2687,0,0,0,0,0,0,-5.2921,-5.2916,-5.2858,-5.2873,-5.2863,-5.2786,-5.2781,-5.2766,-5.2756,-5.2684,-5.267,-5.2706,-5.2619,-5.2612,-5.263,-5.2671,-5.2571,-5.2571,-5.2676,-5.2681,-5.2686,-5.2808,0,0,0,0,0,0,-5.2923,-5.2917,-5.2939,-5.2874,-5.2863,-5.2877,-5.2784,-5.2767,-5.2756,-5.2744,-5.2685,-5.2672,-5.2615,-5.2631,-5.2629,-5.2669,-5.257,-5.2672,-5.2678,-5.2684,-5.28,-5.2816,-5.2831,0,0,0,0,0,-5.2926,-5.2978,-5.2941,-5.2936,-5.2889,-5.288,-5.2873,-5.2806,-5.276,-5.2781,-5.2735,-5.2674,-5.2668,-5.2634,-5.2631,-5.2671,-5.2669,-5.2676,-5.2684,-5.2793,-5.2813,-5.283,0,0,0,0,0,0,-5.3051,-5.2968,-5.2926,-5.2959,-5.2928,-5.2859,-5.2884,-5.283,-5.2812,-5.2801,-5.272,-5.2708,-5.2735,-5.2705,-5.2669,-5.2726,-5.2659,-5.2666,-5.2743,-5.2762,-5.2777,-5.2782,-5.257,0,0,0,0,0,-5.3083,-5.3082,-5.301,-5.3046,-5.3032,-5.2962,-5.2955,-5.2906,-5.287,-5.2856,-5.2811,-5.2779,-5.2769,-5.2765,-5.2752,-5.2796,-5.278,-5.2822,-5.2838,-5.2851,-5.2857,-5.2875,-5.2892,-5.2712,-5.2712,-5.2712,0,0,-5.3148,-5.3102,-5.3107,-5.307,-5.304,-5.304,-5.2951,-5.2956,-5.2956,-5.2857,-5.2869,-5.2836,-5.2795,-5.2825,-5.2836,-5.2801,-5.2904,-5.286,-5.2871,-5.287,-5.2885,-5.2902,-5.2917,-5.2717,-5.2716,-5.2715,0,0,-5.3266,-5.3233,-5.3257,-5.3229,-5.3183,-5.3136,-5.3142,-5.3082,-5.3055,-5.3066,-5.2992,-5.2991,-5.2977,-5.2949,-5.2934,-5.3042,-5.2985,-5.3041,-5.312,-5.3139,-5.3153,-5.3166,-5.3201,-5.3215,-5.3048,-5.3048,-5.3048,0,-5.3352,-5.3349,-5.3278,-5.3286,-5.3272,-5.3182,-5.3207,-5.3183,-5.3137,-5.3128,-5.309,-5.3069,-5.3035,-5.3057,-5.3083,-5.3075,-5.3078,-5.3045,-5.3157,-5.3169,-5.3179,-5.3212,-5.3226,-5.3055,-5.3054,-5.3053,-5.3053,0,-5.3457,-5.3456,-5.3482,-5.3438,-5.3427,-5.3444,-5.3374,-5.3372,-5.3324,-5.3281,-5.3293,-5.325,-5.3226,-5.3228,-5.3183,-5.3243,-5.3222,-5.3172,-5.3103,-5.3204,-5.3233,-5.3246,-5.3065,-5.3062,-5.306,-5.3059,0,0,-5.3649,-5.3565,-5.3575,-5.3553,-5.3496,-5.3495,-5.3508,-5.3484,-5.3482,-5.3454,-5.3461,-5.3451,-5.3404,-5.3387,-5.3338,-5.3355,-5.344,-5.3302,-5.33,-5.3326,-5.35,-5.3536,-5.3552,-5.3403,-5.3405,-5.3407,-5.3502,0,-5.3754,-5.3769,-5.3705,-5.3737,-5.3735,-5.365,-5.3661,-5.3628,-5.3589,-5.3581,-5.3538,-5.3531,-5.347,-5.3459,-5.3473,-5.3427,-5.3473,-5.3419,-5.3407,-5.3408,-5.3417,-5.3567,-5.3605,-5.3697,-5.3514,-5.3516,-5.3517,0,-5.3877,-5.3853,-5.3885,-5.3825,-5.3822,-5.3833,-5.3804,-5.3799,-5.376,-5.3729,-5.371,-5.3653,-5.3661,-5.3598,-5.3607,-5.3572,-5.3564,-5.3541,-5.3543,-5.3536,-5.3466,-5.3562,-5.3726,-5.3738,-5.3535,-5.3534,-5.3533,0,-5.401,-5.3987,-5.4002,-5.3986,-5.3918,-5.3927,-5.3899,-5.3857,-5.3846,-5.3822,-5.3813,-5.3792,-5.3779,-5.3763,-5.3701,-5.3661,-5.3717,-5.3649,-5.3691,-5.3692,-5.3703,-5.3703,-5.3865,-5.3705,-5.3705,-5.3704,-5.3704,0,-5.4132,-5.4154,-5.406,-5.407,-5.4092,-5.4018,-5.4042,-5.4006,-5.3969,-5.3969,-5.3897,-5.3899,-5.3819,-5.3812,-5.3765,-5.3778,-5.3774,-5.3749,-5.3735,-5.3753,-5.3756,-5.3744,-5.3735,-5.3708,-5.3707,-5.3706,-5.3706,0,-5.4283,-5.4222,-5.4232,-5.4166,-5.415,-5.4169,-5.4113,-5.4118,-5.4074,-5.4076,-5.4072,-5.4003,-5.3991,-5.3929,-5.3904,-5.3871,-5.39,-5.3876,-5.3913,-5.3903,-5.3947,-5.3943,-5.4104,-5.4121,-5.3954,-5.3956,-5.3957,0,-5.4363,-5.4377,-5.4313,-5.4307,-5.4282,-5.4275,-5.4262,-5.4191,-5.4182,-5.4137,-5.4148,-5.413,-5.4112,-5.4097,-5.4045,-5.4024,-5.3996,-5.4055,-5.3993,-5.401,-5.3993,-5.3992,-5.3991,-5.4067,-5.4069,-5.4071,-5.4072,0,-5.451,-5.4479,-5.4463,-5.4437,-5.4425,-5.4401,-5.4373,-5.4373,-5.4294,-5.4287,-5.4273,-5.4259,-5.4232,-5.4214,-5.4185,-5.4156,-5.4101,-5.4093,-5.41,-5.4117,-5.4137,-5.4123,-5.3945,-5.4088,-5.4087,-5.4086,-5.4085,-5.4084,-5.4625,-5.4633,-5.4589,-5.4574,-5.4545,-5.452,-5.4521,-5.4477,-5.4464,-5.4435,-5.4395,-5.4386,-5.4346,-5.43,-5.4276,-5.4268,-5.4236,-5.4249,-5.4251,-5.4254,-5.4262,-5.4141,-5.4263,-5.4262,-5.4262,-5.4261,-5.4261,0,-5.4766,-5.4733,-5.472,-5.4682,-5.467,-5.462,-5.4586,-5.4579,-5.4572,-5.4539,-5.4521,-5.4505,-5.4488,-5.4434,-5.4411,-5.4415,-5.4389,-5.4411,-5.4408,-5.4402,-5.4294,-5.4287,-5.4432,-5.4432,-5.4432,-5.4432,-5.4432,-5.4432,-5.4838,-5.4847,-5.4811,-5.4806,-5.4773,-5.4762,-5.4747,-5.4724,-5.4696,-5.468,-5.4665,-5.463,-5.4588,-5.4561,-5.4543,-5.4527,-5.4521,-5.4551,-5.4527,-5.4426,-5.441,-5.4394,-5.4388,-5.4551,-5.4551,-5.4636,-5.4636,-5.4637]},{"header":{"parameterUnit":"m.s-1","parameterCategory":1,"la1":30.2991,"la2":30.254,"lo1":-89.0895,"lo2":-89.0444,"dy":0.0017,"dx":0.0017,"nx":28,"ny":28,"refTime":"2024-05-17T03:00:00:Z","depth":0,"parameterNumber":3,"parameterNumberName":"V-component_of_WINDS"},"data":[0,0,0,0,0,0,0,0,0,0,0,0,0,0,0,0,0,0,0,0,0,0,0,0,0,0,0,0,0,0,0,0,0,0,0,0,0,0,0,0,0,0,0,0,0,0,0,0,0,0,0,0,0,0,0,0,0,0,1.2325,1.2325,0,1.2268,1.2267,1.2267,1.2074,1.207,1.2065,1.2061,1.2008,1.2011,1.2014,0,0,0,0,0,0,0,0,0,0,0,0,0,1.2275,1.2277,1.2325,1.2325,1.2324,1.2268,1.2267,1.2267,1.2075,1.2069,1.2064,1.2059,1.2008,1.2011,1.2014,0,0,0,0,0,0,0,0,0,0,0,0,0,1.2265,1.2277,1.2325,1.2221,1.2211,1.2268,1.2267,1.2266,1.2076,1.2069,1.2063,1.2057,1.2007,1.201,1.2014,1.2169,0,0,1.2026,1.2028,0,0,0,0,0,0,0,0,1.2266,1.2267,1.2237,1.2229,1.2217,1.2171,1.223,1.2234,1.2077,1.2128,1.2061,1.2053,1.2068,1.2067,1.2071,1.2167,1.2165,1.2027,1.2029,1.2031,1.2032,0,0,0,0,0,0,0,1.2267,1.2269,1.2303,1.2237,1.2225,1.218,1.2171,1.223,1.2135,1.2123,1.2108,1.2104,1.2062,1.2067,1.2068,1.2164,1.2027,1.203,1.2033,1.2034,1.2386,1.2393,0,0,0,0,0,0,1.2282,1.2271,1.2305,1.2301,1.2226,1.2186,1.2176,1.2193,1.2134,1.2119,1.211,1.2095,1.2064,1.2064,1.2065,1.2244,1.2031,1.2035,1.2037,1.238,1.2388,1.2396,0,0,0,0,0,0,1.2281,1.2287,1.2307,1.2282,1.2281,1.2193,1.2214,1.2195,1.22,1.2124,1.2107,1.2132,1.2058,1.206,1.2145,1.2239,1.2036,1.204,1.2371,1.2382,1.2392,1.2602,0,0,0,0,0,0,1.2281,1.2288,1.2344,1.2285,1.2283,1.2386,1.222,1.2199,1.2207,1.2188,1.2141,1.2127,1.2053,1.214,1.2149,1.2241,1.2043,1.2362,1.2376,1.2388,1.2586,1.2618,1.2646,0,0,0,0,0,1.228,1.2406,1.2348,1.2353,1.2351,1.2392,1.2391,1.2302,1.2215,1.2272,1.2224,1.2128,1.2228,1.215,1.2159,1.2254,1.2356,1.2372,1.2388,1.2573,1.2612,1.2645,0,0,0,0,0,0,1.248,1.2396,1.2331,1.2441,1.2425,1.2359,1.2428,1.2346,1.2356,1.2337,1.2229,1.222,1.2321,1.2296,1.2211,1.2402,1.2276,1.2294,1.2414,1.2451,1.248,1.2485,1.2046,0,0,0,0,0,1.2537,1.2575,1.25,1.2605,1.26,1.2517,1.2531,1.2464,1.2443,1.2436,1.2393,1.2379,1.2406,1.2427,1.2448,1.2582,1.257,1.2652,1.2681,1.2706,1.2723,1.2794,1.283,1.2447,1.2447,1.2447,0,0,1.2655,1.2614,1.2645,1.2645,1.2624,1.2668,1.2512,1.2564,1.2596,1.2444,1.2521,1.2491,1.2467,1.2578,1.2625,1.256,1.2827,1.2726,1.2747,1.275,1.2814,1.285,1.2883,1.2458,1.2456,1.2454,0,0,1.2893,1.2865,1.295,1.2933,1.2903,1.2847,1.2868,1.2815,1.2788,1.2864,1.2751,1.2789,1.2839,1.2827,1.2828,1.3065,1.2978,1.3075,1.3231,1.3301,1.3331,1.3357,1.3443,1.3475,1.3092,1.3093,1.3093,0,1.3044,1.3103,1.3005,1.3065,1.3069,1.2932,1.3019,1.3008,1.2988,1.2996,1.2923,1.2984,1.2958,1.3065,1.3123,1.3128,1.315,1.3079,1.3334,1.336,1.3383,1.3464,1.3496,1.3105,1.3103,1.3102,1.3101,0,1.3292,1.3335,1.3408,1.3391,1.3403,1.3477,1.3392,1.3417,1.335,1.3302,1.3383,1.3348,1.336,1.3381,1.3316,1.348,1.344,1.3353,1.3225,1.3433,1.3507,1.3537,1.3122,1.3118,1.3114,1.3111,0,0,1.3653,1.3581,1.361,1.3601,1.356,1.3592,1.3661,1.3672,1.3697,1.3689,1.3745,1.3791,1.371,1.3712,1.3645,1.3707,1.3899,1.3611,1.3609,1.3667,1.4079,1.4146,1.4183,1.3841,1.3846,1.3851,1.4081,0,1.3879,1.399,1.3904,1.4032,1.4072,1.3944,1.4004,1.3987,1.3945,1.3975,1.3929,1.3964,1.3854,1.3854,1.3909,1.3864,1.398,1.3846,1.3895,1.3897,1.3905,1.4221,1.4291,1.4511,1.411,1.4114,1.4118,0,1.4157,1.4161,1.4292,1.4244,1.4258,1.4313,1.4317,1.4347,1.4326,1.4291,1.4294,1.4212,1.4278,1.4153,1.4244,1.4155,1.417,1.4151,1.4158,1.4159,1.4021,1.4233,1.4578,1.4612,1.4162,1.4159,1.4156,0,1.4409,1.4447,1.453,1.4527,1.4473,1.4515,1.4495,1.4467,1.448,1.4485,1.4493,1.4506,1.4514,1.4527,1.4452,1.4367,1.4555,1.4422,1.453,1.4532,1.4575,1.4574,1.4929,1.4584,1.4584,1.4583,1.4582,0,1.4671,1.4757,1.4643,1.4695,1.4788,1.469,1.4786,1.4753,1.473,1.4775,1.4665,1.471,1.4607,1.4643,1.4584,1.467,1.4674,1.465,1.4634,1.466,1.4664,1.4669,1.4653,1.4592,1.459,1.4588,1.4587,0,1.4968,1.4895,1.4978,1.492,1.4908,1.4979,1.4931,1.4978,1.4929,1.4987,1.4995,1.492,1.4956,1.4882,1.4908,1.4869,1.4991,1.495,1.4998,1.4986,1.5099,1.509,1.5471,1.5517,1.5142,1.5146,1.5149,0,1.514,1.5203,1.5152,1.5174,1.5159,1.5195,1.5208,1.5115,1.5133,1.5116,1.5166,1.5192,1.5208,1.5273,1.5222,1.5242,1.5201,1.5334,1.5204,1.5229,1.5205,1.5203,1.521,1.5361,1.5365,1.5369,1.5372,0,1.5454,1.5415,1.5436,1.5447,1.5465,1.5469,1.5465,1.5489,1.5391,1.5418,1.5452,1.5465,1.5492,1.5521,1.553,1.5511,1.5427,1.5414,1.544,1.5468,1.5494,1.5483,1.5072,1.5405,1.5402,1.5399,1.5398,1.5396,1.5694,1.5745,1.5718,1.5746,1.5733,1.5733,1.5775,1.5732,1.5758,1.5772,1.5716,1.5765,1.5745,1.5747,1.5738,1.5776,1.5717,1.5755,1.5764,1.5775,1.5794,1.5487,1.5777,1.5776,1.5775,1.5774,1.5773,0,1.6004,1.598,1.6007,1.6005,1.6029,1.5946,1.5938,1.5964,1.6007,1.5995,1.6013,1.6055,1.6083,1.6035,1.6056,1.6096,1.6058,1.6105,1.6102,1.6099,1.5845,1.5821,1.6135,1.6135,1.6135,1.6135,1.6135,1.6135,1.6167,1.6249,1.6208,1.6284,1.626,1.6306,1.6309,1.6309,1.6299,1.635,1.6372,1.634,1.6315,1.6333,1.6356,1.6341,1.6355,1.6416,1.6388,1.6152,1.6117,1.6083,1.606,1.6419,1.6419,1.6639,1.6641,1.6643]}]]